sat.trackr.live / text

‹ back to catalog

STARLINK-3592

NORAD 51801 · 2022-017AK

PAYLOAD ACTIVE UNKNOWN

§ Identity

Operator
Country
US
Launch date
2022-02-25
Launch site
AFWTR
Launch vehicle
Mass (kg)
RCS (m²)

Purposes: comms

External: N2YO · Heavens-Above · Gunter

§ Orbital elements

Epoch: 2026-09-20T01:25:41.304576Z

Period
93.86 min
Inclination
53.1597°
Eccentricity
0.0001413
Mean motion
15.34212790 rev/d
Perigee alt
462.3 km
Apogee alt
464.2 km
Semi-major
6,841.4 km
B*
-7.9303e-4
RAAN
181.4361°
Arg perigee
47.5037°
Mean anomaly
312.6084°
Rev number
25,347

§ Raw data

STARLINK-35921 51801U 22017AK  26263.05950584 -.00026916  00000+0 -79303-3 0  99922 51801  53.1597 181.4361 0001413  47.5037 312.6084 15.34212790253475

JSON: /api/v1/satellites/51801 · /tle

For live sub-satellite position, see the globe view (requires WebGL).

§ Visibility from observer

Set your observer location to see the next 7 days of passes ≥ 10°. The values pass through the URL so the page stays shareable.

No JS? Fill the form by hand. The geolocation button needs JavaScript.